, MT

(GMT )
West Yellowstone

Weather History for KWYS - January, 2013

Change the Weather History Date:

Monday, January 7, 2013

  Actual Average Record
Temperature  
Mean Temperature 8 °F -  
Max Temperature 15 °F 20 °F 28 °F (2011)
Min Temperature 0 °F 0 °F -36 °F (2017)
Degree Days  
Heating Degree Days 58    
Moisture  
Dew Point -    
Average Humidity    
Maximum Humidity    
Minimum Humidity    
Precipitation  
Precipitation 0.00 in - - ()
Sea Level Pressure  
Sea Level Pressure 29.99 in    
Wind  
Wind Speed 5 mph (SW)    
Max Wind Speed 20 mph    
Max Gust Speed 32 mph    
Visibility 6 miles    
Events Snow    
Averages and records for this station are not official NWS values.
T = Trace of Precipitation, MM = Missing Value Source: NWS Daily Summary

Daily Weather History Graph

Daily Weather History Graph

Search for Another Location

Airport or City:

Trip Planner

Search our weather history database for the weather conditions in past years. The results will help you decide how hot, cold, wet, or windy it might be!

Date:

Astronomy

Jan. 07, 2013 Rise Set
Actual Time 8:01 AM MST 5:01 PM MST
Civil Twilight 7:28 AM MST 5:34 PM MST
Nautical Twilight 6:51 AM MST 6:10 PM MST
Astronomical Twilight 6:16 AM MST 6:46 PM MST
Moon 3:26 AM MST (1/7) 1:16 PM MST (1/7)
Length of Visible Light 10h 06m
Length of Day
9h 00m
Waning Crescent, 22% of the Moon is Illuminated
Jan 7
Waning Crescent
Jan 11
New
Jan 18
First Quarter
Jan 26
Full
Feb 3
Last Quarter

Hourly Weather History & Observations

Time (MST) Temp. Windchill Dew Point Humidity Pressure Visibility Wind Dir Wind Speed Gust Speed Precip Events Conditions
12:25 AM 10.4 °F 0.8 °F - N/A% 30.03 in 10.0 mi South 5.8 mph - N/A   Clear
12:45 AM 8.6 °F 2.0 °F - N/A% 30.03 in 10.0 mi SSW 3.5 mph - N/A   Clear
1:05 AM 5.0 °F - - N/A% 30.04 in 10.0 mi Calm Calm - N/A   Clear
1:25 AM 1.4 °F -6.2 °F - N/A% 30.03 in 10.0 mi South 3.5 mph - N/A   Clear
1:45 AM 1.4 °F - - N/A% 30.03 in 10.0 mi Calm Calm - N/A   Clear
2:05 AM -0.4 °F -10.4 °F - N/A% 30.03 in 10.0 mi SE 4.6 mph - N/A   Clear
2:25 AM 5.0 °F -4.1 °F - N/A% 30.05 in 10.0 mi NW 4.6 mph - N/A   Clear
2:45 AM 1.4 °F - - N/A% 30.04 in 10.0 mi Calm Calm - N/A   Clear
3:05 AM -0.4 °F - - N/A% 30.04 in 10.0 mi Calm Calm - N/A   Clear
3:25 AM -0.4 °F - - N/A% 30.03 in 10.0 mi Calm Calm - N/A   Clear
3:45 AM -0.4 °F - - N/A% 30.03 in 10.0 mi Calm Calm - N/A   Clear
4:05 AM -0.4 °F - - N/A% 30.02 in 10.0 mi Calm Calm - N/A   Clear
4:25 AM -0.4 °F - - N/A% 30.02 in 10.0 mi Calm Calm - N/A   Scattered Clouds
4:45 AM -0.4 °F -10.4 °F - N/A% 30.03 in 10.0 mi WSW 4.6 mph - N/A   Scattered Clouds
5:25 AM -0.4 °F - - N/A% 30.03 in 10.0 mi Calm Calm - N/A   Clear
5:45 AM -0.4 °F -8.3 °F - N/A% 30.02 in 10.0 mi South 3.5 mph - N/A   Clear
6:05 AM 1.4 °F -6.2 °F - N/A% 30.02 in 10.0 mi ESE 3.5 mph - N/A   Clear
6:25 AM -0.4 °F - - N/A% 30.02 in 10.0 mi Calm Calm - N/A   Clear
6:45 AM -0.4 °F - - N/A% 30.02 in 10.0 mi Calm Calm - N/A   Clear
7:05 AM -0.4 °F - - N/A% 30.01 in 10.0 mi Calm Calm - N/A   Clear
7:25 AM -0.4 °F - - N/A% 30.03 in 10.0 mi Calm Calm - N/A   Partly Cloudy
7:45 AM -0.4 °F - - N/A% 30.04 in 10.0 mi Calm Calm - N/A   Mostly Cloudy
8:05 AM -0.4 °F -8.3 °F - N/A% 30.04 in 10.0 mi SSW 3.5 mph - N/A   Scattered Clouds
8:25 AM 1.4 °F - - N/A% 30.04 in 10.0 mi Calm Calm - N/A   Partly Cloudy
8:45 AM 3.2 °F - - N/A% 30.04 in 10.0 mi Calm Calm - N/A   Partly Cloudy
9:05 AM 5.0 °F - - N/A% 30.03 in 10.0 mi Calm Calm - N/A   Partly Cloudy
9:25 AM 5.0 °F - - N/A% 30.03 in 10.0 mi Calm Calm - N/A   Mostly Cloudy
9:45 AM 6.8 °F - - N/A% 30.03 in 10.0 mi Calm Calm - N/A   Mostly Cloudy
10:05 AM 8.6 °F - - N/A% 30.03 in 10.0 mi Calm Calm - N/A   Mostly Cloudy
10:25 AM 8.6 °F - - N/A% 30.04 in 10.0 mi Calm Calm - N/A   Overcast
10:45 AM 10.4 °F - - N/A% 30.04 in 10.0 mi Calm Calm - N/A   Mostly Cloudy
11:05 AM 14.0 °F - - N/A% 30.04 in 9.0 mi Calm Calm - N/A Snow Light Snow
11:25 AM 14.0 °F 5.1 °F - N/A% 30.03 in 1.5 mi SSW 5.8 mph - N/A Snow Light Snow
12:05 PM 15.8 °F 4.2 °F - N/A% 30.01 in 0.8 mi SSW 9.2 mph - N/A Snow Light Snow
12:25 PM 15.8 °F 3.4 °F - N/A% 29.99 in 0.8 mi SW 10.4 mph 16.1 mph N/A Snow Light Snow
12:45 PM 15.8 °F 4.2 °F - N/A% 29.98 in 0.8 mi SW 9.2 mph - N/A Snow Light Snow
1:05 PM 15.8 °F 6.1 °F - N/A% 29.97 in 0.8 mi SSW 6.9 mph - N/A Snow Light Snow
1:25 PM 15.8 °F 2.7 °F - N/A% 29.96 in 0.8 mi SSW 11.5 mph 16.1 mph N/A Snow Light Snow
1:45 PM 15.8 °F 3.4 °F - N/A% 29.96 in 0.8 mi SSW 10.4 mph - N/A Snow Light Snow
2:05 PM 15.8 °F 0.3 °F - N/A% 29.96 in 0.8 mi SSW 16.1 mph 25.3 mph N/A Snow Light Snow
2:25 PM 15.8 °F 0.3 °F - N/A% 29.96 in 2.0 mi SSW 16.1 mph 20.7 mph N/A Snow Light Snow
2:45 PM 15.8 °F 1.4 °F - N/A% 29.96 in 2.0 mi SSW 13.8 mph 18.4 mph N/A Snow Light Snow
3:05 PM 15.8 °F 4.2 °F - N/A% 29.96 in 1.0 mi SSW 9.2 mph 18.4 mph N/A Snow Light Snow
3:25 PM 15.8 °F 3.4 °F - N/A% 29.95 in 0.8 mi SSW 10.4 mph - N/A Snow Light Snow
4:05 PM 15.8 °F 4.2 °F - N/A% 29.95 in 1.2 mi SW 9.2 mph - N/A Snow Light Snow
4:25 PM 15.8 °F 2.7 °F - N/A% 29.95 in 1.0 mi SW 11.5 mph 18.4 mph N/A Snow Light Snow
4:45 PM 15.8 °F 0.3 °F - N/A% 29.95 in 8.0 mi SW 16.1 mph 26.5 mph N/A Snow Light Snow
5:05 PM 15.8 °F 2.7 °F - N/A% 29.94 in 1.5 mi West 11.5 mph 17.3 mph N/A Snow Light Snow
5:25 PM 15.8 °F 4.2 °F - N/A% 29.95 in 1.8 mi WSW 9.2 mph 19.6 mph N/A Snow Light Snow
5:45 PM 15.8 °F 3.4 °F - N/A% 29.95 in 2.0 mi WSW 10.4 mph 21.9 mph N/A Snow Light Snow
6:05 PM 15.8 °F 4.2 °F - N/A% 29.96 in 1.5 mi WSW 9.2 mph 16.1 mph N/A Snow Light Snow
6:25 PM 15.8 °F 2.7 °F - N/A% 29.95 in 2.5 mi WSW 11.5 mph 17.3 mph N/A Snow Light Snow
6:45 PM 15.8 °F 2.1 °F - N/A% 29.95 in 2.0 mi SW 12.7 mph 20.7 mph N/A Snow Light Snow
7:05 PM 15.8 °F -0.2 °F - N/A% 29.96 in 1.2 mi SW 17.3 mph 24.2 mph N/A Snow Light Snow
7:25 PM 15.8 °F 0.9 °F - N/A% 29.95 in 1.2 mi SW 15.0 mph 20.7 mph N/A Snow Light Snow
7:45 PM 15.8 °F -0.2 °F - N/A% 29.94 in 1.5 mi SW 17.3 mph 29.9 mph N/A Snow Light Snow
8:05 PM 15.8 °F 5.1 °F - N/A% 29.94 in 1.5 mi WSW 8.1 mph 18.4 mph N/A Snow Light Snow
8:25 PM 15.8 °F 2.7 °F - N/A% 29.94 in 2.5 mi SW 11.5 mph 21.9 mph N/A Snow Light Snow
8:45 PM 15.8 °F 0.9 °F - N/A% 29.93 in 3.0 mi SSW 15.0 mph 29.9 mph N/A Snow Light Snow
9:05 PM 15.8 °F -1.1 °F - N/A% 29.93 in 2.5 mi SW 19.6 mph 32.2 mph N/A Snow Light Snow
9:25 PM 15.8 °F 0.3 °F - N/A% 29.93 in 3.0 mi SSW 16.1 mph 27.6 mph N/A   Mostly Cloudy
9:45 PM 15.8 °F 2.7 °F - N/A% 29.95 in 5.0 mi WSW 11.5 mph 25.3 mph N/A   Haze
10:05 PM 15.8 °F 2.1 °F - N/A% 29.95 in 5.0 mi SW 12.7 mph 18.4 mph N/A Snow Light Snow
10:25 PM 15.8 °F 4.2 °F - N/A% 29.95 in 5.0 mi SW 9.2 mph - N/A   Haze
10:45 PM 15.8 °F 3.4 °F - N/A% 29.95 in 5.0 mi SW 10.4 mph 19.6 mph N/A Snow Light Snow
11:05 PM 15.8 °F 5.1 °F - N/A% 29.95 in 5.0 mi WSW 8.1 mph 20.7 mph N/A   Haze
11:45 PM 15.8 °F -0.2 °F - N/A% 29.95 in 4.0 mi WSW 17.3 mph 28.8 mph N/A   Haze